Terug naar catalogus

STARLINK-36168

ActiefCommunicatieSSO
NORAD 68677·PAYLOAD·🇺🇸 United States

Gelanceerd Apr 11, 2026 vanaf Vandenberg Space Force Base

Loading…

Volgende Passages (komende 24 uur)

TLE

VersSource: CelesTrak SupGP

Epoch: Sep 14, 2026, 22:41 UTC

1 68677C 26077R   26257.94562500  .00056282  00000+0  17477-2 0  2576
2 68677  97.2845 127.9362 0001742  96.2287 240.3241 15.33400521    10

Volg STARLINK-36168 in realtime met AllMySat

Download on the App Store